TimePST,TemperatureF,Dew PointF,Humidity,Sea Level PressureIn,VisibilityMPH,Wind Direction,Wind SpeedMPH,Gust SpeedMPH,PrecipitationIn,Events,Conditions,WindDirDegrees,DateUTC
12:53 AM,51.1,48.9,92,29.94,8.0,NNW,3.5,-,N/A,,Overcast,330,2012-11-07 08:53:00
1:53 AM,54.0,48.0,80,29.95,10.0,West,5.8,-,N/A,,Overcast,280,2012-11-07 09:53:00
2:53 AM,54.0,46.0,75,29.98,10.0,Calm,Calm,-,0.01,Rain,Light Rain,0,2012-11-07 10:53:00
3:46 AM,51.8,48.2,88,30.00,10.0,SSW,4.6,-,0.01,Rain,Light Rain,210,2012-11-07 11:46:00
3:53 AM,52.0,48.0,86,30.01,10.0,Calm,Calm,-,0.01,,Overcast,0,2012-11-07 11:53:00
4:23 AM,51.8,48.2,88,30.00,10.0,Calm,Calm,-,N/A,,Overcast,0,2012-11-07 12:23:00
4:53 AM,51.1,46.9,86,30.01,10.0,SSE,6.9,-,N/A,,Scattered Clouds,160,2012-11-07 12:53:00
5:53 AM,46.0,44.1,93,30.04,10.0,North,3.5,-,N/A,,Clear,350,2012-11-07 13:53:00
6:53 AM,45.0,41.0,86,30.07,10.0,Calm,Calm,-,N/A,,Clear,0,2012-11-07 14:53:00
7:53 AM,44.1,42.1,93,30.10,10.0,ENE,3.5,-,N/A,,Clear,60,2012-11-07 15:53:00
8:53 AM,51.1,41.0,68,30.10,10.0,SSW,6.9,-,N/A,,Clear,200,2012-11-07 16:53:00
9:53 AM,54.0,39.9,59,30.09,10.0,SSW,10.4,-,N/A,,Clear,210,2012-11-07 17:53:00
10:53 AM,55.9,37.9,51,30.09,10.0,SW,6.9,-,N/A,,Clear,230,2012-11-07 18:53:00
11:53 AM,57.9,37.0,46,30.07,10.0,WSW,12.7,-,N/A,,Clear,250,2012-11-07 19:53:00
12:53 PM,59.0,35.1,41,30.06,10.0,WNW,6.9,-,N/A,,Clear,300,2012-11-07 20:53:00
1:53 PM,60.1,32.0,35,30.05,10.0,West,11.5,-,N/A,,Partly Cloudy,280,2012-11-07 21:53:00
3:53 PM,57.9,28.9,33,30.05,10.0,Calm,Calm,-,N/A,,Clear,0,2012-11-07 23:53:00
4:53 PM,51.1,36.0,56,30.04,10.0,SW,8.1,-,N/A,,Clear,220,2012-11-08 00:53:00
5:53 PM,48.9,35.1,59,30.04,10.0,SW,8.1,-,N/A,,Clear,220,2012-11-08 01:53:00
6:53 PM,46.0,35.1,66,30.03,10.0,East,4.6,-,N/A,,Clear,90,2012-11-08 02:53:00
7:53 PM,39.9,34.0,79,30.01,10.0,Calm,Calm,-,N/A,,Clear,0,2012-11-08 03:53:00
8:53 PM,37.9,34.0,86,30.00,10.0,North,5.8,-,N/A,,Clear,10,2012-11-08 04:53:00
9:53 PM,35.1,33.1,92,29.99,10.0,Calm,Calm,-,N/A,,Scattered Clouds,0,2012-11-08 05:53:00
10:53 PM,35.1,33.1,92,29.97,10.0,Calm,Calm,-,N/A,,Mostly Cloudy,0,2012-11-08 06:53:00
11:53 PM,34.0,32.0,92,29.96,10.0,Calm,Calm,-,N/A,,Mostly Cloudy,0,2012-11-08 07:53:00